Regional Weather Roundup
Issued by NWS

Home | Current Version | Previous Version | Graphics & Text | Print | Product List | Glossary On
Versions: 1 2 3 4 5 6 7 8 9 10 11 12 13 14 15 16 17 18 19 20 21 22 23 24 25 26 27 28 29 30 31 32 33 34 35 36 37 38 39 40 41 42 43 44 45 46 47 48 49 50
000
ASUS43 KMPX 251601
RWRMN
WEATHER ROUNDUP FOR MINNESOTA
NATIONAL WEATHER SERVICE TWIN CITIES/CHANHASSEN MN
1100 AM CDT THU AUG 25 2016


NOTE: "FAIR" INDICATES FEW OR NO CLOUDS BELOW 12,000 FEET WITH NO
SIGNIFICANT WEATHER AND/OR OBSTRUCTIONS TO VISIBILITY. N/A MEANS
CURRENT SKY AND/OR WEATHER CONDITIONS ARE NOT AVAILABLE.

MNZ060>063-068>070-251700-
   Twin Cities Metro

CITY           SKY/WX    TMP DP  RH WIND       PRES   REMARKS
TWIN CITIES    PTSUNNY   71  54  54 W13       30.05R
ST PAUL        MOSUNNY   71  56  58 W10       30.05R
CRYSTAL        CLOUDY    70  52  52 W8        30.03R
LAKEVILLE      CLOUDY    70  59  68 W8        30.06R
EDEN PRAIRIE   CLOUDY    71  55  56 W12       30.05R
LAKEVILLE      CLOUDY    70  59  68 W8        30.06R
SOUTH ST PAUL  CLOUDY    71  55  56 W10       30.05R
LAKE ELMO      FAIR      70  59  68 W8        30.05R
$$
MNZ001>005-007-008-013>017-022>024-027-028-251700-
   Northwest Minnesota

CITY           SKY/WX    TMP DP  RH WIND       PRES   REMARKS
BEMIDJI        CLOUDY    59  53  80 W12       29.96S
HALLOCK        CLOUDY    55  55 100 NW15G22   29.98R
ROSEAU         MOSUNNY   61  55  82 NW14      29.91R
WARROAD        CLOUDY    59  55  88 NW14      29.90R
THIEF RVR FALL CLOUDY    58  55  90 NW15G26   29.97R
CROOKSTON      PTSUNNY   57  57 100 NW17G26   30.00R
FOSSTON        CLOUDY    57  55  94 W10G17    29.98R
DETROIT LAKES  PTSUNNY   59  54  82 W15G21    30.03R
MOORHEAD       CLOUDY    64  54  68 W15G23    30.03R
PARK RAPIDS    CLOUDY    61  52  72 W15       29.99R
MAHNOMEN       CLOUDY    58  55  90 W16       30.00R FOG
$$
MNZ006-009>011-018-025>026-251700-
   North Central Minnesota

CITY           SKY/WX    TMP DP  RH WIND       PRES   REMARKS
BAUDETTE       CLOUDY    60  55  83 W10       29.88R
FLAG ISLAND    CLOUDY    61  57  88 NW8       29.86R
INTL FALLS       N/A     61  53  75 W9        29.88S
WASKISH        CLOUDY    61  55  82 W17G25    29.91R
BIG FORK       CLOUDY    61  54  77 SW8       29.93R
LONGVILLE      CLOUDY    63  54  72 W10G18    29.97R
GRAND RAPIDS   CLOUDY    62  54  74 W6        29.97R
CRANE LAKE     CLOUDY    61  55  82 SW6       29.91S
ORR            CLOUDY    57  54  88 CALM      29.90S
COOK           CLOUDY    61  54  77 W10       29.93R
WALKER         CLOUDY    58  52  80 W8G22     29.98R
$$
MNZ012-019>021-037-251700-
   Northeast Minnesota

CITY           SKY/WX    TMP DP  RH WIND       PRES   REMARKS
DULUTH         MOSUNNY   70  54  56 W21G26    29.95R
ELY            PTSUNNY   64  54  68 W14       29.90S
HIBBING        PTSUNNY   63  53  70 W13       29.94S
EVELETH        PTSUNNY   63  53  69 W9        29.94R
DULUTH HARBOR  SUNNY     72  55  56 W16G24    29.93S
TWO HARBORS    SUNNY     72  57  60 W12G23    29.91R
SILVER BAY     SUNNY     73  54  49 SW8       29.89S
G MARAIS ARPRT MOSUNNY   66  50  55 SW7       29.90S
$$
MNZ029>031-032-039>041-046>048-054>057-064-251700-
   West Central Minnesota

CITY           SKY/WX    TMP DP  RH WIND       PRES   REMARKS
FERGUS FALLS   CLOUDY    61  52  72 W16       30.07R
WHEATON        PTSUNNY   63  54  72 W16G23    30.10R
MORRIS         CLOUDY    63  54  72 W17       30.08R
ALEXANDRIA     CLOUDY    59  51  75 W15       30.08R
ELBOW LAKE     CLOUDY    59  52  77 NW16      30.07R
WADENA         CLOUDY    57  52  82 W15       30.02R
GLENWOOD       PTSUNNY   61  52  72 W15G24    30.08R
APPLETON       CLOUDY    64  52  63 W15       30.09R
BENSON         CLOUDY    64  52  63 NW14      30.09R
ORTONVILLE     CLOUDY    63  52  67 NW13G18   30.10R
MADISON        MOSUNNY   64  52  63 NW14      30.10S
WILLMAR        FAIR      64  54  68 W15       30.10R
$$
MNZ033>034-036-042>043-049>051-058-059-251700-
   Central Minnesota

CITY           SKY/WX    TMP DP  RH WIND       PRES   REMARKS
ST CLOUD       CLOUDY    66  54  65 W13G22    30.04R
SAUK CENTRE    CLOUDY    60  51  71 W15       30.07R
PAYNESVILLE    CLOUDY    64  53  67 NW13G21   30.07R
AITKIN         PTSUNNY   64  50  59 W9G16     29.99R
PINE RIVER     CLOUDY    59  54  82 W10       30.03R
BRAINERD       CLOUDY    61  51  70 W15G24    30.02R
STAPLES        CLOUDY    57  52  82 W15       30.03R
LONG PRAIRIE   CLOUDY    59  50  72 SW9G21    30.06R
LITTLE FALLS   CLOUDY    61  50  67 W13G21    30.04R
LITCHFIELD     MOSUNNY   64  55  72 W10G17    30.08R
BUFFALO        PTSUNNY   66  53  63 W10       30.06R
MAPLE LAKE     MOSUNNY   66  56  69 W9G20     30.06R
HUTCHINSON       N/A    N/A N/A N/A MISG        N/A
$$
MNZ037-044-045-052-053-251700-
   East Central Minnesota

CITY           SKY/WX    TMP DP  RH WIND       PRES   REMARKS
PRINCETON      MOSUNNY   68  55  64 W12       30.03R
MORA           MOSUNNY   64  54  68 W14G20    30.03R
CAMBRIDGE      MOSUNNY   70  54  56 W13G18    30.01R
RUSH CITY      MOSUNNY   68  54  60 W13       30.02R
MOOSE LAKE     SUNNY     68  52  56 W12G20    29.96R
HINCKLEY       FAIR      68  55  64 W15       30.00R
CLOQUET        MOSUNNY   66  52  59 W14G23    29.96R
MCGREGOR       CLOUDY    63  54  72 SW9       29.99R
$$
MNZ071>073-080-081-089-090-097-098-251700-
   Southwest Minnesota

CITY           SKY/WX    TMP DP  RH WIND       PRES   REMARKS
MONTEVIDEO     MOSUNNY   64  55  72 NW9G17    30.12R
GRANITE FALLS  CLOUDY    65  55  71 W12G18    30.13R
CANBY          PTSUNNY   64  53  67 NW13      30.14R
MARSHALL       PTSUNNY   63  54  72 NW9       30.13R
REDWOOD FALLS  CLOUDY    64  54  69 W13       30.10R
OLIVIA         CLOUDY    63  54  72 NW10      30.09R
PIPESTONE      CLOUDY    61  54  77 NW9       30.15R
WINDOM         CLOUDY    66  54  63 W9        30.13R
WORTHINGTON    CLOUDY    65  54  67 W6        30.15R
JACKSON        CLOUDY    66  52  59 NW7       30.14R
TRACY          CLOUDY    65  55  69 W9        30.13R
$$
MNZ065>067-074>077-082>085-091>093-251700-
   South Central Minnesota

CITY           SKY/WX    TMP DP  RH WIND       PRES   REMARKS
MANKATO        CLOUDY    66  55  68 W9        30.10R
NEW ULM          N/A     64  55  72 W13       30.10R
ST JAMES       CLOUDY    63  52  67 W10       30.12R
FAIRMONT       CLOUDY    67  55  65 NW9       30.13R
GLENCOE        CLOUDY    65  58  76 W13G18    30.08R
FARIBAULT      CLOUDY    70  59  68 W8        30.09R
OWATONNA       CLOUDY    70  59  68 W5        30.09R
WASECA         PTSUNNY   64  57  77 W6        30.11R
ALBERT LEA     PTSUNNY   70  61  73 W5        30.11R
$$
MNZ078>079-086>088-094>096-251700-
   Southeast Minnesota

CITY           SKY/WX    TMP DP  RH WIND       PRES   REMARKS
ROCHESTER      SUNNY     73  59  61 W9        30.09R
RED WING       MOSUNNY   75  59  57 W12       30.04R
STANTON        CLOUDY    70  59  68 W8        30.06R
DODGE CENTER   CLOUDY    72  61  68 W13       30.09R
WINONA         SUNNY     73  57  56 SW5       30.06R
AUSTIN         PTSUNNY   73  55  53 W8        30.10R
PRESTON        SUNNY     73  58  59 W8        30.10R
$$
ABBREVIATIONS USED IN REMARKS
   TC - TEMPERATURES IN CELSIUS
  WCI - WIND CHILL INDEX
   HX - HEAT INDEX
  VSB - VISIBILITY
$$



USA.gov is the U.S. government's official web portal to all federal, state and local government web resources and services.